URKKURMM

Guest
Details From URKK - PASHKOVSKIY
To URMM - MINERALNYYE VODY
Flight Number -
Tags generated
Created
Modified
Stats Distance 181 nm / 335 km
Max Altitude 19,700 ft / 6,005 m
Waypoints 3
Social Downloads 3
Likes 0
Share VATSIM

Download

Looking for another format? Having issues loading an existing format? Contact us
Advertisement - Login to hide

Notes

Basic altitude profile: - Ascent Rate: 2500ft/min - Ascent Speed: 250kts - Cruise Altitude: 35000ft - Cruise Speed: 420kts - Descent Rate: 1500ft/min - Descent Speed: 250kts Options: - Use NATs: yes - Use PACOTS: yes - Use low airways: yes - Use high airways: yes

Route

URKK ATREL URMM

ID Type Via Altitude Latitude Longitude Leg Dist Tot Dist Heading (true) Name
O URKK APT - 0 ft / 0 m 45.03464˚ 39.17045˚ - 0 nm - PASHKOVSKIY
ATREL FIX - 19,700 ft / 6,005 m 44.25306˚ 40.94528˚ 89 nm 89 nm 121° / 122° -
O URMM APT - 0 ft / 0 m 44.22507˚ 43.08189˚ 91 nm 181 nm 90° / 92° MINERALNYYE VODY

Altitude Profile

Advertisement - Login to hide

Weather


0- 5 10 15 20 25 30 35+ Temperature / ° C

Clouds and Precipitation
Forecast for 2018-05-24 00:00 UTC. Updated 11 minutes ago

Ground ~20,000 ft ~40,000 ft Winds

URKK

Details ICAO URKK (KRR)
Name PASHKOVSKIY
Region Russia
Timezone Europe/Moscow (UTC+3.0)
Stats Elevation 118 ft / 36 m (AMSL)
Location 45.034644° 39.170454°
Runways 2
Magnetic Variation 7.397° E

METAR

URKK 232330Z 03003MPS CAVOK 20/18 Q1015 R23L/19//65 TEMPO 1000 TSRA BKN005 BKN020CB RMK QFE758

Decode

TAF

TAF URKK 231956Z 2321/2421 08003G08MPS 9999 SCT030CB TEMPO 2321/2412 3100 -TSRA BR SCT011 BKN020CB

Decode

Departure Runways

ID Width Length Bearing (true) Bearing (mag) Surface Threshold Offset Overrun Length
05L 160 ft / 49 m 7,177 ft / 2,187 m 52.37° 44.97° Asphalt 0 ft / 0 m 160 ft / 49 m
05R 145 ft / 44 m 9,822 ft / 2,994 m 52.45° 45.05° Concrete 0 ft / 0 m 160 ft / 49 m
23L 145 ft / 44 m 9,822 ft / 2,994 m 232.47° 225.07° Concrete 0 ft / 0 m 160 ft / 49 m
23R 160 ft / 49 m 7,177 ft / 2,187 m 232.38° 224.98° Asphalt 0 ft / 0 m 160 ft / 49 m

URMM

Details ICAO URMM (MRV)
Name MINERALNYYE VODY
Region Russia
Timezone Europe/Moscow (UTC+3.0)
Stats Elevation 1,054 ft / 321 m (AMSL)
Location 44.225073° 43.081891°
Runways 1
Magnetic Variation 7.425° E

METAR

URMM 232330Z 30005MPS 9999 NSC 17/14 Q1016 R30/090070 NOSIG RMK QFE733/0978

Decode

TAF

TAF URMM 232000Z 2321/2421 28003G08MPS 9999 BKN030 TX28/2412Z TN15/2402Z TEMPO 2321/2421 VRB08G15MPS 3100 -TSRA BKN011 BKN030CB

Decode

Destination Runways

ID Width Length Bearing (true) Bearing (mag) Surface Threshold Offset Overrun Length
12 197 ft / 60 m 12,766 ft / 3,891 m 122.28° 114.85° Concrete 0 ft / 0 m 240 ft / 73 m
30 197 ft / 60 m 12,766 ft / 3,891 m 302.31° 294.88° Concrete 0 ft / 0 m 250 ft / 76 m

Popular Alternatives